Home > Time Zones > World Clock > Weather > Chad > Sarh > Past weeks

Flag for Chad Weather past 2 weeks in Sarh, Chad

Now
79 °F

Partly sunny.


Feels Like: 81 °F
Forecast: 69 / 77 °F
Wind: 7 mph from South

Location: Sarh Airport

Current Time: Sep 2, 2014 at 11:27:12 AM

Latest Report: Sep 2, 2014 at 11:00 AM


Visibility: N/A

Pressure: 29.95 "Hg

Humidity: 74%

Dew point: 70 °F

Location of SarhLocation

Historic Weather in Sarh — Graph

°F

Sarh temperature yesterday

Maximum temperature yesterday: 88 °F (at 1:00 PM)
Minimum temperature yesterday: 70 °F (at 5:00 PM)
Average temperature yesterday: 76 °F

Past Weeks' High & Low Weather Summary

 TemperatureHumidityPressure
High99 °F (Aug 28, 2:00 PM)100% (Aug 18, 10:00 AM)30.07 "Hg (Aug 18, 10:00 AM)
Low70 °F (Aug 25, 3:00 AM)39% (Aug 28, 2:00 PM)29.80 "Hg (Aug 28, 4:00 PM)
Average78 °F82%29.92 "Hg
* Reported Aug 18 10:00 AM — Sep 2 10:00 AM, Sarh, Weather by CustomWeather, © 2014

Note: Actual official high and low records may vary slightly from our data, if they occured in-between our weather recording intervals... More about our weather records

Advertising

Sarh weather history for previous 24 hours

 ConditionsComfort  
Time TempWeatherWind HumidityBarometerVisibility
10:00 AM
Sep 2
75 °FPartly sunny.10 mph83%29.92 "HgN/A
9:00 AM72 °FThunderstorms. Cloudy.10 mph94%29.92 "HgN/A
8:00 AM70 °FMild.7 mph94%29.95 "HgN/A
7:00 AM70 °FThunderstorms. Partly sunny.5 mph94%29.95 "Hg2 mi
6:00 AM70 °FThunderstorms. Cloudy.No wind94%29.92 "HgN/A
5:00 AM70 °FThunderstorms. Passing clouds.5 mph94%29.89 "Hg1 mi
4:00 AM70 °FPassing clouds.5 mph100%29.89 "HgN/A
3:00 AM70 °FPassing clouds.No wind94%29.89 "Hg1 mi
2:00 AM70 °FMild.3 mph94%29.89 "HgN/A
1:00 AM72 °FPassing clouds.No wind94%29.92 "HgN/A
11:00 PM
Sep 1
70 °FMild.No wind94%29.92 "HgN/A
10:00 PM70 °FPassing clouds.No wind94%29.92 "HgN/A
9:00 PM70 °FPassing clouds.3 mph50%29.89 "HgN/A
8:00 PM70 °FPassing clouds.3 mph94%29.86 "HgN/A
7:00 PM70 °FThunderstorms. Passing clouds.5 mph94%29.86 "HgN/A
6:00 PM70 °FThunderstorms. Passing clouds.9 mph94%29.89 "HgN/A
5:00 PM70 °FThunderstorms. Partly sunny.No wind94%29.89 "HgN/A
4:00 PM73 °FRain. Partly sunny.20 mph74%29.92 "Hg4 mi
3:00 PM82 °FPassing clouds.7 mph70%29.83 "HgN/A
2:00 PM86 °FScattered clouds.6 mph66%29.86 "HgN/A
1:00 PM88 °FScattered clouds.5 mph66%29.86 "HgN/A
12:00 PM75 °FScattered clouds.8 mph83%29.92 "HgN/A
11:00 AM84 °FScattered clouds.9 mph70%29.95 "HgN/A
Weather by CustomWeather, © 2014

See weather overviewHow to use our weather pages